Regional Weather Roundup
Issued by NWS Bismarck, ND

Home | Current Version | Previous Version | Text Only | Print | Product List | Glossary On
Versions: 1 2 3 4 5 6 7 8 9 10 11 12 13 14 15 16 17 18 19 20 21 22 23 24 25 26 27 28 29 30 31 32 33 34 35 36 37 38 39 40 41 42 43 44 45 46 47 48 49 50
000
ASUS43 KBIS 271210
RWRBIS

NWR BROADCAST TEXT
NATIONAL WEATHER SERVICE BISMARCK ND
700 AM CDT SUN MAY 27 2018

NOTE: "FAIR" INDICATES FEW OR NO CLOUDS BELOW 12,000 FEET WITH NO
SIGNIFICANT WEATHER AND/OR OBSTRUCTIONS TO VISIBILITY.


CITY           SKY/WX    TMP DP  RH WIND       PRES   REMARKS
WILLISTON      CLOUDY    62  59  90 SW13      29.86R
MINOT          CLOUDY    63  59  87 N10G18    29.79R
MINOT AFB      CLOUDY    62  62 100 NE15      29.74F
BISMARCK       MOCLDY    68  59  73 NE23G32   29.79F
DICKINSON      CLOUDY    58  55  90 NE9       29.79S
GARRISON         N/A     62  58  86 NE10      29.76S
HETTINGER ARPT CLOUDY    62  54  74 NE17      29.81R
JAMESTOWN      TSTM      66  60  81 NW22G41   29.89R
CARRINGTON     RAIN      64  61  88 N14G24    29.87F
HAZEN          FAIR      64  61  88 NE5       29.79R
LINTON         FAIR     N/A N/A N/A NE17G24   29.82R
MANDAN         FAIR      68  59  73 NE20G31   29.79F
STANLEY          N/A     61  61 100 NE17G26   29.84R FOG
TIOGA          FAIR      59  59 100 NE9       29.85R
WATFORD CITY   FAIR      61  61 100 CALM      29.84R
$$

CITY           SKY/WX    TMP DP  RH WIND       PRES   REMARKS
GRAND FORKS    CLOUDY    60  58  92 CALM      29.80R
GRAND FORKS AF LGT RAIN  61  61 100 N5        29.81R
DEVILS LAKE    RAIN      63  61  94 NW10      29.93R FOG
FARGO          RAIN      63  57  81 NE7       29.82R
CANDO          DRIZZLE   63  63 100 NW10      29.93F
CAVALIER         N/A     63  57  82 N10       29.84R
GRAFTON        PTSUNNY   61  59  94 N5        29.83R
GWINNER          N/A     68  61  77 NE14      29.80F
LANGDON        TSTM      63  63 100 NW16      29.94R VSB 1
ROLLA          RAIN      61  61 100 NE3       29.92F
WALHALLA       FAIR      61  61 100 NW8       29.86R FOG
$$

CITY           SKY/WX    TMP DP  RH WIND       PRES   REMARKS
ABERDEEN       MOCLDY    70  56  61 NE7       29.76R
MOBRIDGE       CLOUDY    74  58  57 CALM      29.73R
BUFFALO          N/A     63  52  67 NE16      29.76F
RAPID CITY     MOCLDY    68  59  73 NW22G36   29.82R
GLASGOW        CLOUDY    62  56  80 N9        29.86F
SIDNEY         CLOUDY    61  58  90 N12       29.82F
WOLF POINT     CLOUDY    58  56  93 W3        29.85R
GLENDIVE       CLOUDY    60  57  89 W10       29.84R
MILES CITY     CLOUDY    63  58  83 NW6       29.87F
BAKER          CLOUDY    62  53  72 W15       29.90R
$$

CITY           SKY/WX    TMP DP  RH WIND       PRES   REMARKS
BILLINGS       CLOUDY    58  49  72 NW10      29.98S
GREAT FALLS    CLOUDY    59  49  69 S8        30.04R
REGINA         MOCLDY    57  55  94 N12G20    29.86R
ESTEVAN        CLOUDY    61  59  94 SE12      29.84R
$$




USA.gov is the U.S. government's official web portal to all federal, state and local government web resources and services.